• Currently

    Reported at Minneapolis, Minneapolis-St. Paul International Airport, MN
    3:53 AM CST SUN MAR 26 2017
  • 37°F3°C
  • Drizzle
    Drizzle
  • Feels Like:33°F0°CDew Point:34°F1°CHumidity:87% Winds:E 7 mph 11 kph
    Pressure:29.94 in1014 hPaVisibility:7.00 miles11263.00 meters
Time Weather Temp Dew Point
Humidity Winds Visibility Pressure Precipitation
1 hr 24 hr
Saturday, March 18
23:53 23:53 Cloudy Cloudy 35°F2°C 25°F-4°C 67% NW 12 mphNW 19 kph 10.0 miles16.1 km 30.09 in1019 hPa 0.00 in0.00 mm --
22:53 22:53 Cloudy Cloudy 35°F2°C 25°F-4°C 67% WNW 14 mphWNW 22 kph 10.0 miles16.1 km 30.06 in1018 hPa 0.00 in0.00 mm --
22:18 22:18 Cloudy Cloudy 36°F2°C 25°F-4°C 65% NW 20 mphNW 31 kph 10.0 miles16.1 km 30.06 in1018 hPa 0.00 in0.00 mm --
22:06 22:06 Cloudy Cloudy 36°F2°C 25°F-4°C 64% NW 15 mphNW 24 kph 10.0 miles16.1 km 30.06 in1018 hPa 0.00 in0.00 mm --
21:53 21:53 Cloudy Cloudy 36°F2°C 25°F-4°C 64% WNW 17 mphWNW 28 kph 10.0 miles16.1 km 30.06 in1018 hPa 0.00 in0.00 mm --
21:28 21:28 Cloudy Cloudy 36°F2°C 27°F-3°C 70% WNW 18 mphWNW 30 kph 10.0 miles16.1 km 30.06 in1018 hPa 0.00 in0.00 mm --
21:18 21:18 Cloudy Cloudy 36°F2°C 26°F-3°C 67% WNW 21 mphWNW 33 kph 10.0 miles16.1 km 30.06 in1018 hPa 0.00 in0.00 mm --
20:53 20:53 Cloudy Cloudy 36°F2°C 26°F-3°C 67% WNW 20 mphWNW 31 kph 10.0 miles16.1 km 30.06 in1018 hPa 0.00 in0.00 mm --
19:53 19:53 Cloudy Cloudy 37°F3°C 27°F-3°C 67% NW 23 mphNW 37 kph 10.0 miles16.1 km 30.03 in1017 hPa 0.00 in0.00 mm --
18:53 18:53 Cloudy Cloudy 38°F3°C 29°F-2°C 70% WNW 20 mphWNW 31 kph 10.0 miles16.1 km 30 in1016 hPa 0.00 in0.00 mm --
17:53 17:53 Cloudy Cloudy 39°F4°C 29°F-2°C 67% WNW 17 mphWNW 28 kph 10.0 miles16.1 km 29.97 in1015 hPa 0.00 in0.00 mm --
16:53 16:53 Cloudy Cloudy 39°F4°C 31°F-1°C 73% WNW 17 mphWNW 28 kph 10.0 miles16.1 km 29.97 in1015 hPa 0.00 in0.00 mm --
15:53 15:53 Cloudy Cloudy 40°F4°C 32°F0°C 73% WNW 18 mphWNW 30 kph 10.0 miles16.1 km 29.94 in1014 hPa 0.00 in0.00 mm --
14:53 14:53 Cloudy Cloudy 42°F6°C 31°F-1°C 65% W 20 mphW 31 kph 10.0 miles16.1 km 29.94 in1014 hPa 0.00 in0.00 mm --
13:57 13:57 Cloudy Cloudy 42°F6°C 32°F0°C 68% W 15 mphW 24 kph 10.0 miles16.1 km 29.94 in1014 hPa 0.00 in0.00 mm --
13:53 13:53 Cloudy Cloudy 42°F6°C 32°F0°C 68% W 20 mphW 31 kph 10.0 miles16.1 km 29.94 in1014 hPa 0.00 in0.00 mm --
13:39 13:39 Cloudy Cloudy 43°F6°C 32°F0°C 65% W 14 mphW 22 kph 10.0 miles16.1 km 29.94 in1014 hPa 0.00 in0.00 mm --
12:53 12:53 Cloudy Cloudy 43°F6°C 33°F1°C 68% WSW 16 mphWSW 26 kph 10.0 miles16.1 km 29.94 in1014 hPa 0.00 in0.00 mm --
12:05 12:05 Cloudy Cloudy 42°F6°C 32°F0°C 68% W 10 mphW 17 kph 10.0 miles16.1 km 29.94 in1014 hPa 0.00 in0.00 mm --
11:53 11:53 Cloudy Cloudy 42°F6°C 32°F0°C 68% W 9 mphW 15 kph 10.0 miles16.1 km 29.94 in1014 hPa 0.00 in0.00 mm --
11:31 11:31 Cloudy Cloudy 41°F5°C 32°F0°C 70% W 8 mphW 13 kph 9.0 miles14.5 km 29.94 in1014 hPa 0.00 in0.00 mm --
11:09 11:09 Mostly Cloudy Mostly Cloudy 40°F4°C 32°F0°C 73% WNW 8 mphWNW 13 kph 8.0 miles12.9 km 29.94 in1014 hPa 0.00 in0.00 mm --
10:53 10:53 Mostly Cloudy Mostly Cloudy 39°F4°C 32°F0°C 76% W 13 mphW 20 kph 7.0 miles11.3 km 29.94 in1014 hPa 0.00 in0.00 mm --
09:53 09:53 Cloudy Cloudy 37°F3°C 28°F-2°C 70% WNW 12 mphWNW 19 kph 9.0 miles14.5 km 29.94 in1014 hPa 0.00 in0.00 mm --
09:19 09:19 Mostly Cloudy Mostly Cloudy 36°F2°C 27°F-3°C 70% W 9 mphW 15 kph 9.0 miles14.5 km 29.94 in1014 hPa 0.00 in0.00 mm --
08:53 08:53 Mostly Sunny Mostly Sunny 35°F2°C 28°F-2°C 76% W 7 mphW 11 kph 9.0 miles14.5 km 29.94 in1014 hPa 0.00 in0.00 mm --
07:53 07:53 Mostly Sunny Mostly Sunny 32°F0°C 27°F-3°C 82% SSW 3 mphSSW 6 kph 9.0 miles14.5 km 29.91 in1013 hPa 0.00 in0.00 mm --
06:53 06:53 Mostly Clear Mostly Clear 30°F-1°C 25°F-4°C 82% SSE 5 mphSSE 7 kph 9.0 miles14.5 km 29.91 in1013 hPa 0.00 in0.00 mm --
05:53 05:53 Clear Clear 34°F1°C 26°F-3°C 73% SE 5 mphSE 7 kph 7.0 miles11.3 km 29.88 in1012 hPa 0.00 in0.00 mm --
04:53 04:53 Mostly Clear Mostly Clear 33°F1°C 26°F-3°C 75% SE 5 mphSE 7 kph 7.0 miles11.3 km 29.88 in1012 hPa 0.00 in0.00 mm --
03:53 03:53 Partly Cloudy Partly Cloudy 34°F1°C 26°F-3°C 73% CalmCalm 8.0 miles12.9 km 29.88 in1012 hPa 0.00 in0.00 mm --
02:53 02:53 Cloudy Cloudy 35°F2°C 26°F-3°C 70% SE 7 mphSE 11 kph 10.0 miles16.1 km 29.88 in1012 hPa 0.00 in0.00 mm --
01:53 01:53 Cloudy Cloudy 35°F2°C 26°F-3°C 70% SE 7 mphSE 11 kph 10.0 miles16.1 km 29.88 in1012 hPa 0.00 in0.00 mm --
00:53 00:53 Cloudy Cloudy 35°F2°C 26°F-3°C 70% SE 9 mphSE 15 kph 10.0 miles16.1 km 29.91 in1013 hPa 0.00 in0.00 mm --